Regional Weather Roundup
Issued by NWS

Home | Current Version | Previous Version | Graphics & Text | Print | Product List | Glossary On
Versions: 1 2 3 4 5 6 7 8 9 10 11 12 13 14 15 16 17 18 19 20 21 22 23 24 25 26 27 28 29 30 31 32 33 34 35 36 37 38 39 40 41 42 43 44 45 46 47 48 49 50
000
ASUS43 KLSX 250607
RWRMO

WEATHER SUMMARY FOR MISSOURI
NATIONAL WEATHER SERVICE SPRINGFIELD MO
100 AM CDT SAT APR 25 2015

NOTE: "FAIR" INDICATES FEW OR NO CLOUDS BELOW 12,000 FEET WITH NO
       SIGNIFICANT WEATHER AND/OR OBSTRUCTIONS TO VISIBILITY.
       CURRENT SKY AND/OR WEATHER CONDITIONS ARE NOT AVAILABLE FOR
       CHILLICOTHE AND FARMINGTON.

MOZ001>031-035>038-043-044-053-054-250700-
...NORTHERN AND WESTERN MISSOURI...

CITY           SKY/WX    TMP DP  RH WIND       PRES   REMARKS
KANSAS CTY INT CLOUDY    60  56  86 SE20      29.51F THUNDER
6HR MIN TEMP:  60; 6HR MAX TEMP:  63; 6HR PCP: TRACE;

KANSAS C DTWN  CLOUDY    62  55  77 SE13G20   29.52F
6HR MIN TEMP:  62; 6HR MAX TEMP:  66; 6HR PCP: TRACE;

LEE`S SUMMIT   CLOUDY    59  53  80 SE10      29.56F
6HR MIN TEMP:  59; 6HR MAX TEMP:  64;

ST JOSEPH      CLOUDY    60  55  83 SE15      29.49F
6HR MIN TEMP:  58; 6HR MAX TEMP:  61; 6HR PCP:  0.03;

CHILLICOTHE      N/A     57  50  77 SE7       29.57F
6HR MIN TEMP:  57; 6HR MAX TEMP:  62;

KIRKSVILLE     CLOUDY    56  50  80 SE9       29.64R
6HR MIN TEMP:  54; 6HR MAX TEMP:  63; 6HR PCP: TRACE;


$$
MOZ066>068-077>081-088>096-101>105-250700-
...SOUTHWEST MISSOURI...

CITY           SKY/WX    TMP DP  RH WIND       PRES   REMARKS
SPRINGFIELD    CLOUDY    58  56  93 S16       29.59F
6HR MIN TEMP:  56; 6HR MAX TEMP:  59;

JOPLIN         FAIR      61  56  83 S16       29.54F
6HR MIN TEMP:  61; 6HR MAX TEMP:  65;


$$
MOZ032>034-039>042-045>050-055>058-069>072-250700-
...CENTRAL MISSOURI...

CITY           SKY/WX    TMP DP  RH WIND       PRES   REMARKS
COLUMBIA       CLOUDY    55  50  83 SE8       29.65F
6HR MIN TEMP:  54; 6HR MAX TEMP:  60;

JEFFERSON CITY CLOUDY    56  51  84 E8        29.68R
6HR MIN TEMP:  56; 6HR MAX TEMP:  61;

ROLLA          CLOUDY    53  51  93 S15       29.65S
6HR MIN TEMP:  52; 6HR MAX TEMP:  55;

SEDALIA        MOCLDY    56  51  84 SE9       29.62F
6HR MIN TEMP:  55; 6HR MAX TEMP:  63;

WHITEMAN AFB   FAIR      55  52  89 SE8       29.58F
WARRENSBURG    FAIR      55  52  88 E9        29.58F
OSAGE BEACH    CLOUDY    57  52  82 SE7       29.65S

$$
MOZ051-052-059>065-250700-
...EAST CENTRAL MISSOURI...

CITY           SKY/WX    TMP DP  RH WIND       PRES   REMARKS
ST LOUIS INTL  CLOUDY    56  45  66 SE9       29.74R
6HR MIN TEMP:  56; 6HR MAX TEMP:  60;

SPIRIT OF STL  CLOUDY    53  47  79 E5        29.70F
6HR MIN TEMP:  53; 6HR MAX TEMP:  58;

ST CHARLES     CLOUDY    54  45  71 E8        29.72F
6HR MIN TEMP:  53; 6HR MAX TEMP:  60;


$$
MOZ072>076-082>087-097>100-106>115-250700-
...SOUTH CENTRAL AND SOUTHEAST MISSOURI...

CITY           SKY/WX    TMP DP  RH WIND       PRES   REMARKS
CAPE GIRARDEAU CLOUDY    56  53  90 SE5       29.75F
6HR MIN TEMP:  55; 6HR MAX TEMP:  57;

FARMINGTON     CLOUDY    54  48  82 S8        29.76F
6HR MIN TEMP:  54; 6HR MAX TEMP:  54;

POPLAR BLUFF   CLOUDY    56  53  90 NE5       29.72F
6HR MIN TEMP:  55; 6HR MAX TEMP:  56; 6HR PCP: TRACE;

WEST PLAINS    FOG       53  52  96 E5        29.69F VSB 1/4
6HR MIN TEMP:  51; 6HR MAX TEMP:  53; 6HR PCP: TRACE;


$$



USA.gov is the U.S. government's official web portal to all federal, state and local government web resources and services.